Flag for Taiwan Weather past 2 weeks in Taichung, Taiwan

73 °F

Broken clouds.

Feels Like: 76 °F
Forecast: 62 / 73 °F
Wind: 21 mph from Northeast

Location: Chiang Kai Shek

Current Time: Nov 25, 2015 at 1:10:28 PM

Latest Report: Nov 25, 2015 at 12:00 PM

Visibility: N/A

Pressure: 30.01 "Hg

Humidity: 69%

Dew point: 63 °F

Location of TaichungLocation

Historic Weather in Taichung — Graph


Taichung temperature yesterday

Maximum temperature yesterday: 75 °F (at 1:30 PM)
Minimum temperature yesterday: 70 °F (at 2:30 AM)
Average temperature yesterday: 72 °F

Past Weeks' High & Low Weather Summary

High88 °F (Nov 16, 12:00 PM)94% (Nov 14, 3:00 AM)30.15 "Hg (Nov 14, 3:00 AM)
Low68 °F (Nov 10, 6:00 PM)49% (Nov 16, 11:30 AM)29.92 "Hg (Nov 16, 2:00 AM)
Average75 °F75%30.03 "Hg
* Reported Nov 10 11:00 AM — Nov 25 11:00 AM, Taichung, Weather by CustomWeather, © 2015

Note: Actual official high and low records may vary slightly from our data, if they occured in-between our weather recording intervals... More about our weather records


Taichung weather history for previous 24 hours

Time TempWeatherWind HumidityBarometerVisibility
11:00 AM
Wed, Nov 25
73 °FBroken clouds.17 mph65%30.04 "HgN/A
10:30 AM73 °FBroken clouds.20 mph65%30.07 "HgN/A
10:00 AM75 °FBroken clouds.20 mph61%30.07 "HgN/A
9:30 AM73 °FBroken clouds.20 mph69%30.07 "HgN/A
9:00 AM73 °FBroken clouds.15 mph69%30.07 "HgN/A
8:30 AM72 °FBroken clouds.14 mph73%30.04 "HgN/A
8:00 AM72 °FBroken clouds.14 mph73%30.04 "HgN/A
7:30 AM72 °FBroken clouds.14 mph73%30.04 "HgN/A
7:00 AM72 °FPartly sunny.14 mph73%30.04 "HgN/A
6:30 AM70 °FPartly sunny.8 mph78%30.01 "HgN/A
6:00 AM70 °FPassing clouds.9 mph78%30.01 "HgN/A
5:30 AM72 °FPassing clouds.10 mph73%30.01 "HgN/A
5:00 AM72 °FPassing clouds.12 mph73%30.01 "HgN/A
4:30 AM70 °FPassing clouds.9 mph78%30.01 "HgN/A
4:00 AM72 °FPassing clouds.9 mph73%29.98 "HgN/A
3:30 AM72 °FPassing clouds.9 mph73%29.98 "HgN/A
3:00 AM72 °FPassing clouds.10 mph73%30.01 "HgN/A
2:30 AM72 °FPassing clouds.9 mph73%30.01 "HgN/A
2:00 AM72 °FPassing clouds.9 mph73%30.01 "HgN/A
1:30 AM72 °FPassing clouds.10 mph73%30.01 "HgN/A
1:00 AM72 °FPassing clouds.8 mph73%30.01 "HgN/A
12:30 AM72 °FPassing clouds.10 mph73%30.01 "HgN/A
12:00 AM72 °FPassing clouds.12 mph73%30.01 "HgN/A
11:30 PM
Tue, Nov 24
70 °FPassing clouds.12 mph78%30.01 "HgN/A
11:00 PM70 °FPassing clouds.14 mph78%30.04 "HgN/A
10:30 PM70 °FPassing clouds.14 mph78%30.04 "HgN/A
10:00 PM72 °FPassing clouds.14 mph73%30.04 "HgN/A
9:30 PM72 °FPassing clouds.17 mph73%30.04 "HgN/A
9:00 PM72 °FPassing clouds.18 mph73%30.04 "HgN/A
8:30 PM72 °FPassing clouds.16 mph69%30.04 "HgN/A
8:00 PM72 °FPassing clouds.16 mph73%30.04 "HgN/A
7:30 PM72 °FPassing clouds.13 mph73%30.04 "HgN/A
7:00 PM72 °FPassing clouds.13 mph73%30.01 "HgN/A
6:30 PM72 °FPartly cloudy.17 mph73%30.01 "HgN/A
6:00 PM72 °FPartly cloudy.16 mph73%30.01 "HgN/A
5:30 PM72 °FPartly cloudy.17 mph73%30.01 "HgN/A
5:00 PM72 °FBroken clouds.16 mph73%30.01 "HgN/A
4:30 PM73 °FBroken clouds.17 mph69%29.98 "HgN/A
4:00 PM73 °FPartly sunny.17 mph65%29.98 "HgN/A
3:30 PM73 °FBroken clouds.18 mph65%29.98 "HgN/A
3:00 PM73 °FPartly sunny.18 mph69%29.98 "HgN/A
2:00 PM73 °FPartly sunny.20 mph69%30.01 "HgN/A
1:30 PM75 °FBroken clouds.18 mph65%30.01 "HgN/A
Weather by CustomWeather, © 2015

See weather overviewHow to use our weather pages